EGAC

Belfast/George Best Belfast City Airport

Airport
ICAO code
EGAC
IATA Code
BHD
Summary
ICAO Region
EUR
ICAO Territory
Location

Port of Belfast, Northern Ireland

Serving
Belfast
Elevation
15 ft
Coordinates
54° 37' 10" N , 5° 52' 26" W
KCC
Metar
EGAC 212320Z AUTO 22014KT 9000 -RA FEW019/// SCT028/// BKN035/// //////CB 08/05 Q0985 RERA RESHGR

Description

Belfast City Airport, recently given the commercial identity 'George Best Belfast City' is a downtown airport in Belfast, County Down, Northern Ireland with a single runway and is situated adjacent to the Port of Belfast approximately 3 km from Belfast City Centre. It shares the site with the Bombardier (formerly Short Bros) aircraft manufacturing facility.

Climatology

Temperate Marine climate/Oceanic climate (Köppen climate classification Cfb) - Moderately cool summer and comparatively warm winter.

Runways

Designator Length Width Surface Rops
4/22 1829 45 ASP Yes/Yes

Airport map

Aerial View

SKYbrary Partners:

Safety knowledge contributed by: